Regional Weather Roundup
Issued by NWS Sterling, VA

Home | Current Version | Previous Version | Graphics & Text | Print | Product List | Glossary On
Versions: 1 2 3 4 5 6 7 8 9 10 11 12 13 14 15 16 17 18 19 20 21 22 23 24 25 26 27 28 29 30 31 32 33 34 35 36 37 38 39 40 41 42 43 44 45 46 47 48 49
000
ASUS41 KLWX 240310
RWRLWX

REGIONAL WEATHER ROUNDUP
NATIONAL WEATHER SERVICE BALTIMORE MD/WASHINGTON DC
1000 PM EST TUE DEC 23 2014

Note: "FAIR" indicates few or no clouds below 12,000 feet
with no significant weather and/or obstructions to visibility.
 TC=TEMPERATURE CELSIUS

 * =Non NWS site. Station does not report precipitation (e.g. rain,
    snow, etc.), thunder, or fog.

DCZ001-MDZ009-015-VAZ040>042-051-053>054-240400-
WASHINGTON METRO

CITY           SKY/WX    TMP DP  RH WIND       PRES   REMARKS
WASHINGTON NAT CLOUDY    47  44  90 CALM      30.05R FOG
DULLES         FOG       43  41  93 CALM      30.05R VSB 3/4
ANDREWS AFB    FOG       45  45 100 S2        30.04R VSB 1/2
FT BELVOIR     CLOUDY    44  43  97 S1        30.06R FOG
QUANTICO       FOG       44  41  89 CALM      30.06F VSB 1/2
COLLEGE PARK*  CLOUDY    46  46 100 CALM      30.04R
LEESBURG*      FOG       43  43 100 CALM      30.06R VSB 3/4
MANASSAS*      CLOUDY    43  43 100 CALM      30.05R
GAITHERSBURG*  CLOUDY    45  43  93 SE3       30.07R VSB 3/4

$$

MDZ006>007-011-014-240400-
BALTIMORE METRO

CITY           SKY/WX    TMP DP  RH WIND       PRES   REMARKS
BWI AIRPORT    DRZL/FOG  47  46  97 SE3       30.03F VSB 1/4
MD SCIENCE CTR   N/A     46  46 100 MISG      30.03F
MARTIN STATE   FOG       46  46 100 CALM      30.06F VSB 3/4
ANNAPOLIS      FOG       44  43  96 SE5       30.05S VSB 1/2
FORT MEADE*    CLOUDY    45  43  93 CALM      30.07R VSB 1/2

$$

MDZ012-015-019>023-240400-
MARYLAND EASTERN SHORE

CITY           SKY/WX    TMP DP  RH WIND       PRES   REMARKS
OCEAN CITY     CLOUDY    47  46  97 N3        30.07R
SALISBURY      FOG       52  49  89 CALM      30.06R VSB 1/4
BAY BRIDGE AP*   N/A     45  45 100 SE3       30.05S FOG
CAMBRIDGE*     CLOUDY    48  46  93 CALM      30.05S
EASTON*        FOG       48  48 100 CALM      30.09R VSB 1/2

$$

MDZ017>025-240400-
SOUTHERN MARYLAND

CITY           SKY/WX    TMP DP  RH WIND       PRES   REMARKS
PATUXENT RIVER CLOUDY    46  43  89 CALM      30.05R
ST INIGOES     CLOUDY    45  41  86 CALM      30.05R FOG
LEONARDTOWN*   CLOUDY    45  43  93 CALM      30.06S

$$

MDZ003>005-240400-
NORTH CENTRAL MARYLAND

CITY           SKY/WX    TMP DP  RH WIND       PRES   REMARKS
FREDERICK*     FOG       45  41  87 N5        30.05F VSB 1
HAGERSTOWN APT FOG       40  38  93 NW5       30.01S VSB 1/2
WESTMINSTER*   FOG       46  45  93 CALM      30.02R VSB 3/4

$$

MDZ501>502-240400-
WESTERN MARYLAND

CITY           SKY/WX    TMP DP  RH WIND       PRES   REMARKS
OAKLAND*       FOG       34 N/A N/A SE17      29.92R VSB 1/4 WCI  23
CUMBERLAND*    CLOUDY    37  37 100 CALM      30.05F VSB 1/2

$$

VAZ025>031-240400-
SHENANDOAH VALLEY

CITY           SKY/WX    TMP DP  RH WIND       PRES   REMARKS
WINCHESTER*    FOG       41  36  81 CALM      30.01F VSB 3/4
FRONT ROYAL*   CLOUDY    37  37 100 CALM      30.02S VSB 1/4
LURAY*         CLOUDY    41  41 100 CALM      30.01S FOG
NEW MARKET*    CLOUDY    39  39 100 CALM      30.00F VSB 1/2
STAUNTON*      RAIN      42  40  91 CALM      30.02S
WAYNESBORO*    CLOUDY    41  40  98 CALM      29.99F

$$

WVZ021-048>050-054>055-240400-
EASTERN WEST VIRGINIA PANHANDLE

CITY           SKY/WX    TMP DP  RH WIND       PRES   REMARKS
MARTINSBURG    FOG       39  36  89 SE3       30.02F VSB 1/2
PETERSBURG*    FOG       37  37 100 CALM      30.02F VSB 3/4

$$

VAZ036>039-050-240400-
CENTRAL FOOTHILLS

CITY           SKY/WX    TMP DP  RH WIND       PRES   REMARKS
CHARLOTTESVILL RAIN      43  42  97 CALM      30.02R VSB 3/4
CULPEPER*      CLOUDY    45  45 100 CALM      30.03F FOG
ORANGE*        DRIZZLE   45  43  93 CALM      30.05R
GORDONSVILLE*  CLOUDY    43  42  99 CALM      30.03R FOG
WARRENTON*     CLOUDY    44  44 100 NE3       30.03F FOG

$$

VAZ055>057-240400-
NORTH AND CENTRAL PIEDMONT

CITY           SKY/WX    TMP DP  RH WIND       PRES   REMARKS
FREDERICKSBRG* FOG       45  45 100 CALM      30.04F VSB 1/2
STAFFORD*      FOG       43  43 100 CALM      30.07F VSB 1/2

$$

NCZ024-NYZ072-PAZ021-071-VAZ022-071-240400-
OTHER REGIONAL OBSERVATIONS

CITY           SKY/WX    TMP DP  RH WIND       PRES   REMARKS
NEW YORK CITY  CLOUDY    46  44  93 VRB5      30.12S FOG
PHILADELPHIA   CLOUDY    47  45  93 E8        30.08F FOG
PITTSBURGH     MOCLDY    48  44  86 E7        29.84F
ROANOKE        LGT RAIN  42  41  96 SE5       30.00F VSB 1
RICHMOND       LGT RAIN  45  43  93 CALM      30.05R VSB 1/4
RALEIGH        LGT RAIN  45  43  93 CALM      30.02S FOG

$$

ANZ530>537-240400-
MARINE OBSERVATIONS

STATION/POSITION TIME  TEMP    WIND        PRES
                       AIR SEA DIR/SP/G
                 (UTC) (F)     (DEG/KT/KT) (MB)
THOMAS PT LIGHT  0300   45 41  130/  4/  4 1018.5S
BALT KEY BRIDGE  0300   45      60/  5/  5 1016.8F
COVE POINT       0300   43     170/  3/  4 1017.3R
LEWISETTA        0300   43 41     CALM     1017.4R
SOLOMONS ISLAND  0300      43                N/A
PINEY POINT      0300          240/  1/  2   N/A

$$




USA.gov is the U.S. government's official web portal to all federal, state and local government web resources and services.